Volver al catálogo

NOAA 16 DEB

ActivoPO
NORAD 41227·DEBRIS·🇺🇸 United States

Lanzado Sep 21, 2000 desde Vandenberg Space Force Base

Loading…

Próximos Pases (próximas 24 horas)

TLE

ActualizadoSource: Space-Track

Época: Sep 13, 2026, 04:49 UTC

1 41227U 00055EG  26256.20079554  .00005463  00000-0  11919-2 0  9990
2 41227  99.0379 162.3937 0020098 196.2216 163.8339 14.58197695560416

Sigue NOAA 16 DEB en tiempo real con AllMySat

Download on the App Store